DW0542 Weather Reports


time (UTC)temp
F
wind
direction
speed
knots
gust
knots
rain 1hr
in
rain 24hr
in
rain mn
in
humidity
%
barometer
mb
20260509041553 39 230 0.0 0.0 0.00 0.00 0.00 83 1014.4
20260509040049 39 230 0.0 0.0 0.00 0.00 0.00 83 1014.3
20260509034547 40 230 0.0 0.0 0.00 0.00 0.00 82 1014.1
20260509033045 40 230 0.0 0.0 0.00 0.00 0.00 81 1014.0
20260509031553 41 230 0.0 0.0 0.00 0.00 0.00 80 1014.0
20260509030013 41 230 0.0 0.0 0.00 0.00 0.00 79 1013.9
20260509024510 42 230 0.0 0.0 0.00 0.00 0.00 77 1013.7
20260509023003 42 230 0.0 0.0 0.00 0.00 0.00 76 1013.8
20260509021600 43 230 0.0 0.0 0.00 0.00 0.00 74 1013.6
20260509020058 43 230 0.0 0.0 0.00 0.00 0.00 72 1013.6
20260509014553 44 230 0.0 0.0 0.00 0.00 0.00 70 1013.5
20260509013048 45 230 0.0 0.0 0.00 0.00 0.00 68 1013.1
20260509011543 47 230 0.0 0.0 0.00 0.00 0.00 66 1012.8
20260509010044 50 230 0.0 0.0 0.00 0.00 0.00 60 1012.6
20260509004535 51 230 0.0 0.0 0.00 0.00 0.00 58 1012.2
20260509003028 51 230 0.0 0.0 0.00 0.00 0.00 57 1012.0
20260509001530 52 230 0.0 0.0 0.00 0.00 0.00 56 1011.9
20260509000021 53 230 0.0 0.0 0.00 0.00 0.00 57 1011.8
20260508234518 53 255 0.0 0.0 0.00 0.00 0.00 54 1011.4
20260508233013 53 253 0.0 2.6 0.00 0.00 0.00 56 1011.1
20260508231510 54 261 0.0 5.2 0.00 0.00 0.00 54 1010.9
20260508230008 54 257 5.2 9.6 0.00 0.00 0.00 52 1010.9
20260508224508 54 251 4.3 11.3 0.00 0.00 0.00 53 1010.8
20260508223006 54 254 4.3 14.8 0.00 0.00 0.00 53 1010.7
20260508221600 54 274 7.8 15.6 0.00 0.00 0.00 53 1010.6
20260508220120 54 271 10.4 16.5 0.00 0.00 0.00 53 1010.7
20260508214557 54 262 7.0 17.4 0.00 0.00 0.00 53 1010.6
20260508213052 54 293 10.4 17.4 0.00 0.00 0.00 56 1010.5
20260508211549 54 290 13.0 19.1 0.00 0.00 0.00 56 1010.4
20260508210048 54 284 9.6 15.6 0.00 0.00 0.00 57 1010.3
20260508204546 53 238 5.2 13.0 0.00 0.00 0.00 57 1010.4
20260508203047 52 276 4.3 13.0 0.00 0.00 0.00 61 1010.5
20260508201513 51 257 9.6 14.8 0.00 0.00 0.00 64 1010.7
20260508200012 51 247 10.4 17.4 0.00 0.00 0.00 65 1010.7
20260508194510 52 259 7.8 12.2 0.00 0.00 0.00 62 1010.7
20260508193008 51 270 9.6 18.2 0.00 0.00 0.00 62 1010.6
20260508191605 52 322 12.2 19.1 0.00 0.00 0.00 61 1010.5
20260508190010 52 295 10.4 16.5 0.00 0.00 0.00 60 1010.5
20260508184544 53 273 8.7 18.2 0.00 0.00 0.00 57 1010.4
20260508183035 55 301 10.4 17.4 0.00 0.00 0.00 55 1010.0
20260508181503 55 266 7.8 13.0 0.00 0.00 0.00 51 1009.9
20260508180002 56 243 3.5 12.2 0.00 0.00 0.00 52 1009.7
20260508174620 56 239 2.6 9.6 0.00 0.00 0.00 45 1009.5
20260508173101 56 292 1.7 13.9 0.00 0.00 0.00 48 1009.6
20260508171559 56 220 3.5 10.4 0.00 0.00 0.00 44 1009.7
20260508170100 55 226 0.9 9.6 0.00 0.00 0.00 46 1009.7
20260508164529 55 251 7.0 13.0 0.00 0.00 0.00 48 1010.0
20260508163036 54 286 0.9 12.2 0.00 0.00 0.00 47 1010.1
20260508161531 54 295 4.3 11.3 0.00 0.00 0.00 50 1010.2
20260508160023 54 206 5.2 13.9 0.00 0.00 0.00 50 1010.3
20260508154523 53 299 5.2 12.2 0.00 0.00 0.00 52 1010.3
20260508153023 53 310 7.0 13.0 0.00 0.00 0.00 55 1010.4
20260508151552 53 271 5.2 11.3 0.00 0.00 0.00 52 1010.5
20260508150054 53 247 1.7 10.4 0.00 0.00 0.00 51 1010.6
20260508144554 52 280 6.1 13.0 0.00 0.00 0.00 55 1010.6
20260508143053 52 265 3.5 10.4 0.00 0.00 0.00 52 1010.7
20260508141555 51 293 6.1 13.9 0.00 0.00 0.00 59 1010.8
20260508140045 51 290 5.2 12.2 0.00 0.00 0.00 53 1010.9
20260508134555 50 308 5.2 10.4 0.00 0.00 0.00 56 1010.9
20260508133042 50 259 7.0 14.8 0.00 0.00 0.00 54 1011.2
20260508131541 50 280 8.7 12.2 0.00 0.00 0.00 54 1011.2
20260508124511 49 272 7.0 12.2 0.00 0.00 0.00 53 1011.2
20260508123008 49 265 1.7 8.7 0.00 0.00 0.00 55 1011.1
20260508121506 48 295 4.3 10.4 0.00 0.00 0.00 56 1011.1
20260508120105 47 287 1.7 7.8 0.00 0.00 0.00 58 1011.1
20260508114504 46 297 0.9 7.0 0.00 0.00 0.00 63 1011.1
20260508113006 45 286 0.0 3.5 0.00 0.00 0.00 64 1011.1
20260508111534 42 288 0.0 3.5 0.00 0.00 0.00 76 1011.0
20260508110030 40 295 0.0 0.0 0.00 0.00 0.00 84 1010.9
20260508104526 39 295 0.0 0.0 0.00 0.00 0.00 85 1010.6
20260508103033 38 295 0.0 0.0 0.00 0.01 0.00 85 1010.5
20260508101522 38 295 0.0 0.0 0.00 0.01 0.00 84 1010.4
20260508100025 39 295 0.0 0.0 0.00 0.01 0.00 85 1010.2
20260508094517 39 295 0.0 0.0 0.00 0.01 0.00 84 1010.1
20260508093016 39 295 0.0 0.0 0.00 0.07 0.00 83 1010.0
20260508091515 39 295 0.0 0.0 0.00 0.07 0.00 82 1009.9
20260508090020 38 295 0.0 0.0 0.00 0.07 0.00 83 1009.9
20260508084508 38 295 0.0 0.0 0.00 0.07 0.00 83 1009.9
20260508083009 38 295 0.0 0.0 0.00 0.19 0.00 84 1009.6
20260508081517 37 295 0.0 0.0 0.00 0.19 0.00 84 1009.9
20260508080005 37 295 0.0 0.0 0.00 0.19 0.00 84 1009.8
20260508074503 38 295 0.0 0.0 0.00 0.19 0.00 82 1009.4
20260508073100 38 295 0.0 0.0 0.00 0.21 0.00 81 1009.2
20260508071558 38 295 0.0 0.0 0.00 0.21 0.00 81 1008.8
20260508070056 38 295 0.0 0.0 0.00 0.21 0.00 80 1008.7
20260508064555 39 295 0.0 0.0 0.00 0.21 0.00 77 1008.6
20260508063103 42 295 0.0 4.3 0.00 0.21 0.00 78 1008.4
20260508061554 39 266 0.0 0.0 0.00 0.21 0.00 78 1008.3
20260508060052 39 266 0.0 0.0 0.00 0.21 0.00 74 1008.1
20260508054645 39 266 0.0 0.0 0.00 0.21 0.00 75 1008.5
20260508053044 39 266 0.0 0.0 0.00 0.21 0.00 75 1008.5
20260508051542 40 266 0.0 0.0 0.00 0.21 0.00 76 1008.6
20260508050039 40 266 0.0 0.0 0.00 0.21 0.00 73 1008.8
20260508044537 41 266 0.0 0.0 0.00 0.21 0.00 70 1008.9
20260508043009 41 266 0.0 0.0 0.00 0.24 0.00 70 1009.0